Content
SEND FEEDBACK

Daily
Averages
Monthly
Summary
Mexico

COZUMEL, QUINTANA ROO


Home > North America > Mexico > Quintana Roo
Elevation: 4 meters     Latitude: 20 31N     Longitude: 086 56W

WEATHER
 
SELECT A DAY
Number of Records: 128,103;   Date Range: 1/1/95 - 11/27/14
 
SHARE

PRINT THIS DATA

[ ← Previous Day ]
WEATHER ALMANAC - 1 NOVEMBER, 2013
[ Next Day → ]
[ °F ]   °C
Weather ElementAverageHighLow
Temperature24.2 °C29 °C (12:43 pm)21 °C (5:40 am)
Dewpoint22.4 °C24 °C (7:46 am)20 °C (5:40 am)
Humidity90.3 %100 % (1:40 am)70 % (12:43 pm)
Barometer1012.9 hPa1015.6 hPa (8:40 am)1011.2 hPa (3:44 pm)
Wind Speed5.5 km/h16.7 km/h (1:41 pm)
Weather ElementAverage
Visibility13.4 km
Wind DirectionENE (60 °)

Weather ElementTotal
Precipitation---
Cooling Degree Days6.7 (Base 18.3)
Growing Degree Days15 (Base 10)
Averaged from 23 records on 1 November, 2013
WEATHER CONDITIONS BREAKOUT
WIND DIRECTION BREAKOUT
WEATHER BY HOUR - 1 NOVEMBER, 2013
[ °F ]   °C
Local TimeTemperatureDewpointHumidityBarometerVisibilityWind DirectionWind SpeedGust SpeedPrecipitationEventsConditions
1:40 AM22 °C22 °C100 %1012.5 hPa11.3 kmCalmClear
2:40 AM22 °C22 °C100 %1013.5 hPa11.3 kmCalmClear
3:40 AM22 °C22 °C100 %1012.5 hPa11.3 kmCalmClear
4:40 AM22 °C21 °C94 %1012.5 hPa11.3 kmCalmClear
5:40 AM21 °C20 °C94 %1012.2 hPa11.3 kmCalmScattered Clouds
6:40 AM21 °C20 °C94 %1013.5 hPa11.3 kmESE (110°)5.6 km/hPartly Cloudy
7:46 AM25 °C24 °C94 %1013.9 hPa12.9 kmESE (120°)9.3 km/hClear
8:40 AM27 °C24 °C84 %1015.6 hPa12.9 kmESE (120°)14.8 km/hScattered Clouds
9:41 AM28 °C23 °C74 %1014.6 hPa16.1 kmSE (140°)13 km/hScattered Clouds
10:41 AM28 °C24 °C79 %1013.9 hPa16.1 kmSE (140°)13 km/hScattered Clouds
11:45 AM28 °C23 °C74 %1012.9 hPa16.1 kmESE (120°)14.8 km/hMostly Cloudy
12:43 PM29 °C23 °C70 %1012.2 hPa16.1 kmSE (140°)11.1 km/hMostly Cloudy
1:41 PM29 °C23 °C70 %1011.5 hPa16.1 kmESE (120°)16.7 km/hMostly Cloudy
2:40 PM28 °C23 °C74 %1011.9 hPa16.1 kmSE (140°)9.3 km/hScattered Clouds
3:44 PM26 °C24 °C89 %1011.2 hPa16.1 kmESE (120°)11.1 km/hMostly Cloudy
4:46 PM25 °C24 °C94 %1011.2 hPa16.1 kmCalmMostly Cloudy
5:41 PM24 °C23 °C94 %1011.2 hPa12.9 kmCalmScattered Clouds
6:41 PM23 °C23 °C100 %1012.5 hPa12.9 kmCalmScattered Clouds
7:40 PM22 °C22 °C100 %1013.2 hPa12.9 kmCalmScattered Clouds
8:42 PM22 °C22 °C100 %1014.6 hPa11.3 kmESE (110°)5.6 km/hPartly Cloudy
9:51 PM21 °C21 °C100 %1013.9 hPa11.3 kmCalmClear
10:40 PM21 °C21 °C100 %1013.5 hPa11.3 kmCalmClear
11:43 PM21 °C21 °C100 %1012.5 hPa11.3 kmCalmScattered Clouds
Hourly data recorded from MMCZ, located 0 kilometers away from Cozumel, Quintana Roo







STORIES FROM OUR PARTNERS